Location: Aufkirchen
(47.9603°N, 11.3653°E)
Time: 07:03:07
(UTC+01:00)

Transit 4A - Pass Details

Date: 05 December 2020
Orbit: 864 x 981 km, 66.8° (Epoch: 16 January)

Event Time Altitude Azimuth Distance (km) Brightness Sun altitude
Rises 13:26:42 0° 324° (NW) 3,690 10.7 17.2°
Reaches altitude 10° 13:29:45 10° 337° (NNW) 2,734 10.0 17.1°
Maximum altitude 13:35:06 27° 34° (NNE) 1,767 9.0 16.8°
Drops below altitude 10° 13:40:20 10° 91° (E) 2,679 10.1 16.4°
Sets 13:43:17 0° 103° (ESE) 3,603 10.9 16.2°
